EUTELSAT HOT BIRD 13E

Last updated on Jan. 15, 2021, 6:30 a.m. UTC

1 28946U 06007B   21014.88938203  .00000080  00000-0  00000-0 0  9999
2 28946   0.0480 160.1865 0003903 101.7804 185.7347  1.00270199 54458
UTC
Height (km)
Latitude
Longitude
Inclination
Orbital Period
UTC large
Height (km)
Speed (km/s)
/
Latitude / Longitude
Inclination (degrees)
Orbital Period (minutes)
Azimuth
Elevation
Range (km)
Doppler Factor
iOS Compass Heading
iOS Angle

Next 30 passes for location: Hong Kong

Rise time Rise Azimuth (degrees) Set time Set Azimuth (degrees) Duration Max altitude (degrees)

No matching passes for this satellites